owner,sensor,date,latitude,longitude,vertical_datum,sea_water_practical_salinity,qcFlag 
DISL,ioos:station:DISL:DISL:1,2012-02-01T00:00:00Z,30.2513,-88.0778,6.963,9.98,1111122 
DISL,ioos:station:DISL:DISL:1,2012-02-01T00:30:00Z,30.2513,-88.0778,6.797,9.88,1111122 
DISL,ioos:station:DISL:DISL:1,2012-02-01T01:00:00Z,30.2513,-88.0778,6.861,9.74,1111122 
DISL,ioos:station:DISL:DISL:1,2012-02-01T01:30:00Z,30.2513,-88.0778,6.724,9.8,1111122 
DISL,ioos:station:DISL:DISL:1,2012-02-01T02:00:00Z,30.2513,-88.0778,6.763,9.88,1111122 
DISL,ioos:station:DISL:DISL:1,2012-02-01T02:30:00Z,30.2513,-88.0778,6.591,10.47,1111122 
DISL,ioos:station:DISL:DISL:1,2012-02-01T03:00:00Z,30.2513,-88.0778,6.628,10.89,1111122 
DISL,ioos:station:DISL:DISL:1,2012-02-01T03:30:00Z,30.2513,-88.0778,6.568,10.39,1111122 
DISL,ioos:station:DISL:DISL:1,2012-02-01T04:00:00Z,30.2513,-88.0778,6.461,9.86,1111122 
DISL,ioos:station:DISL:DISL:1,2012-02-01T04:30:00Z,30.2513,-88.0778,6.449,9.72,1111122 
DISL,ioos:station:DISL:DISL:1,2012-02-01T05:00:00Z,30.2513,-88.0778,6.346,9.6,1111122 
DISL,ioos:station:DISL:DISL:1,2012-02-01T05:30:00Z,30.2513,-88.0778,6.292,9.72,1111122 
DISL,ioos:station:DISL:DISL:1,2012-02-01T06:00:00Z,30.2513,-88.0778,6.276,9.83,1111122 
DISL,ioos:station:DISL:DISL:1,2012-02-01T06:30:00Z,30.2513,-88.0778,6.117,9.94,1111122 
DISL,ioos:station:DISL:DISL:1,2012-02-01T07:00:00Z,30.2513,-88.0778,6.087,8.94,1111122 
DISL,ioos:station:DISL:DISL:1,2012-02-01T07:30:00Z,30.2513,-88.0778,6.083,8.46,1111122 
DISL,ioos:station:DISL:DISL:1,2012-02-01T08:00:00Z,30.2513,-88.0778,6.042,7.82,1111122 
DISL,ioos:station:DISL:DISL:1,2012-02-01T08:30:00Z,30.2513,-88.0778,6.027,7.34,1111122 
DISL,ioos:station:DISL:DISL:1,2012-02-01T09:00:00Z,30.2513,-88.0778,5.942,7.14,1111122 
DISL,ioos:station:DISL:DISL:1,2012-02-01T09:30:00Z,30.2513,-88.0778,5.906,7.04,1111122 
DISL,ioos:station:DISL:DISL:1,2012-02-01T10:00:00Z,30.2513,-88.0778,5.986,6.87,1111122 
DISL,ioos:station:DISL:DISL:1,2012-02-01T10:30:00Z,30.2513,-88.0778,5.608,6.77,1111122 
DISL,ioos:station:DISL:DISL:1,2012-02-01T11:00:00Z,30.2513,-88.0778,5.899,6.76,1111122 
DISL,ioos:station:DISL:DISL:1,2012-02-01T11:30:00Z,30.2513,-88.0778,5.888,6.79,1111122 
DISL,ioos:station:DISL:DISL:1,2012-02-01T12:00:00Z,30.2513,-88.0778,5.938,6.86,1111122 
DISL,ioos:station:DISL:DISL:1,2012-02-01T12:30:00Z,30.2513,-88.0778,5.96,7.19,1111122 
DISL,ioos:station:DISL:DISL:1,2012-02-01T13:00:00Z,30.2513,-88.0778,5.972,7.08,1111122 
DISL,ioos:station:DISL:DISL:1,2012-02-01T13:30:00Z,30.2513,-88.0778,6.055,7.0,1111122 
DISL,ioos:station:DISL:DISL:1,2012-02-01T14:00:00Z,30.2513,-88.0778,6.067,10.73,1111122 
DISL,ioos:station:DISL:DISL:1,2012-02-01T14:30:00Z,30.2513,-88.0778,6.04,10.44,1111122 
DISL,ioos:station:DISL:DISL:1,2012-02-01T15:00:00Z,30.2513,-88.0778,6.133,10.85,1111122 
DISL,ioos:station:DISL:DISL:1,2012-02-01T15:30:00Z,30.2513,-88.0778,6.269,10.65,1111122 
DISL,ioos:station:DISL:DISL:1,2012-02-01T16:00:00Z,30.2513,-88.0778,6.261,10.59,1111122 
DISL,ioos:station:DISL:DISL:1,2012-02-01T16:30:00Z,30.2513,-88.0778,6.433,11.07,1111122 
DISL,ioos:station:DISL:DISL:1,2012-02-01T17:00:00Z,30.2513,-88.0778,6.428,12.33,1111122 
DISL,ioos:station:DISL:DISL:1,2012-02-01T17:30:00Z,30.2513,-88.0778,6.549,18.2,1111122 
DISL,ioos:station:DISL:DISL:1,2012-02-01T18:00:00Z,30.2513,-88.0778,6.73,17.47,1111122 
DISL,ioos:station:DISL:DISL:1,2012-02-01T18:30:00Z,30.2513,-88.0778,6.76,11.37,1111122 
DISL,ioos:station:DISL:DISL:1,2012-02-01T19:00:00Z,30.2513,-88.0778,6.744,12.81,1111122 
DISL,ioos:station:DISL:DISL:1,2012-02-01T19:30:00Z,30.2513,-88.0778,6.817,11.07,1111122 
DISL,ioos:station:DISL:DISL:1,2012-02-01T20:00:00Z,30.2513,-88.0778,6.833,18.46,1111122 
DISL,ioos:station:DISL:DISL:1,2012-02-01T20:30:00Z,30.2513,-88.0778,7.0,14.41,1111122 
DISL,ioos:station:DISL:DISL:1,2012-02-01T21:00:00Z,30.2513,-88.0778,6.921,22.43,1111122 
DISL,ioos:station:DISL:DISL:1,2012-02-01T21:30:00Z,30.2513,-88.0778,6.974,14.27,1111122 
DISL,ioos:station:DISL:DISL:1,2012-02-01T22:00:00Z,30.2513,-88.0778,7.02,12.73,1111122 
DISL,ioos:station:DISL:DISL:1,2012-02-01T22:30:00Z,30.2513,-88.0778,6.942,12.74,1111122 
DISL,ioos:station:DISL:DISL:1,2012-02-01T23:00:00Z,30.2513,-88.0778,6.99,11.99,1111122 
DISL,ioos:station:DISL:DISL:1,2012-02-01T23:30:00Z,30.2513,-88.0778,6.883,12.06,1111122 
DISL,ioos:station:DISL:DISL:1,2012-02-02T00:00:00Z,30.2513,-88.0778,6.893,12.26,1111122 
DISL,ioos:station:DISL:DISL:1,2012-02-02T00:30:00Z,30.2513,-88.0778,6.974,8.23,1111122 
DISL,ioos:station:DISL:DISL:1,2012-02-02T01:00:00Z,30.2513,-88.0778,6.86,7.81,1111122 
DISL,ioos:station:DISL:DISL:1,2012-02-02T01:30:00Z,30.2513,-88.0778,6.735,7.78,1111122 
DISL,ioos:station:DISL:DISL:1,2012-02-02T02:00:00Z,30.2513,-88.0778,6.752,7.83,1111122 
DISL,ioos:station:DISL:DISL:1,2012-02-02T02:30:00Z,30.2513,-88.0778,6.676,7.8,1111122 
DISL,ioos:station:DISL:DISL:1,2012-02-02T03:00:00Z,30.2513,-88.0778,6.684,7.37,1111122 
DISL,ioos:station:DISL:DISL:1,2012-02-02T03:30:00Z,30.2513,-88.0778,6.586,7.55,1111122 
DISL,ioos:station:DISL:DISL:1,2012-02-02T04:00:00Z,30.2513,-88.0778,6.479,7.61,1111122 
DISL,ioos:station:DISL:DISL:1,2012-02-02T04:30:00Z,30.2513,-88.0778,6.468,7.67,1111122 
DISL,ioos:station:DISL:DISL:1,2012-02-02T05:00:00Z,30.2513,-88.0778,6.386,7.52,1111122 
DISL,ioos:station:DISL:DISL:1,2012-02-02T05:30:00Z,30.2513,-88.0778,6.317,7.53,1111122 
DISL,ioos:station:DISL:DISL:1,2012-02-02T06:00:00Z,30.2513,-88.0778,6.263,7.43,1111122 
DISL,ioos:station:DISL:DISL:1,2012-02-02T06:30:00Z,30.2513,-88.0778,6.175,6.99,1111122 
DISL,ioos:station:DISL:DISL:1,2012-02-02T07:00:00Z,30.2513,-88.0778,6.141,6.63,1111122 
DISL,ioos:station:DISL:DISL:1,2012-02-02T07:30:00Z,30.2513,-88.0778,6.021,6.44,1111122 
DISL,ioos:station:DISL:DISL:1,2012-02-02T08:00:00Z,30.2513,-88.0778,5.945,6.28,1111122 
DISL,ioos:station:DISL:DISL:1,2012-02-02T08:30:00Z,30.2513,-88.0778,5.865,6.27,1111122 
DISL,ioos:station:DISL:DISL:1,2012-02-02T09:00:00Z,30.2513,-88.0778,5.886,6.32,1111122 
DISL,ioos:station:DISL:DISL:1,2012-02-02T09:30:00Z,30.2513,-88.0778,5.827,6.15,1111122 
DISL,ioos:station:DISL:DISL:1,2012-02-02T10:00:00Z,30.2513,-88.0778,5.791,6.01,1111122 
DISL,ioos:station:DISL:DISL:1,2012-02-02T10:30:00Z,30.2513,-88.0778,5.766,6.0,1111122 
DISL,ioos:station:DISL:DISL:1,2012-02-02T11:00:00Z,30.2513,-88.0778,5.74,5.93,1111122 
DISL,ioos:station:DISL:DISL:1,2012-02-02T11:30:00Z,30.2513,-88.0778,5.724,5.84,1111122 
DISL,ioos:station:DISL:DISL:1,2012-02-02T12:00:00Z,30.2513,-88.0778,5.757,5.62,1111122 
DISL,ioos:station:DISL:DISL:1,2012-02-02T12:30:00Z,30.2513,-88.0778,5.793,5.55,1111122 
DISL,ioos:station:DISL:DISL:1,2012-02-02T13:00:00Z,30.2513,-88.0778,5.858,5.45,1111122 
DISL,ioos:station:DISL:DISL:1,2012-02-02T13:30:00Z,30.2513,-88.0778,5.823,4.54,1111122 
DISL,ioos:station:DISL:DISL:1,2012-02-02T14:00:00Z,30.2513,-88.0778,5.879,5.83,1111122 
DISL,ioos:station:DISL:DISL:1,2012-02-02T14:30:00Z,30.2513,-88.0778,5.917,5.59,1111122 
DISL,ioos:station:DISL:DISL:1,2012-02-02T15:00:00Z,30.2513,-88.0778,5.994,5.38,1111122 
DISL,ioos:station:DISL:DISL:1,2012-02-02T15:30:00Z,30.2513,-88.0778,6.01,6.04,1111122 
DISL,ioos:station:DISL:DISL:1,2012-02-02T16:00:00Z,30.2513,-88.0778,6.087,6.49,1111122 
DISL,ioos:station:DISL:DISL:1,2012-02-02T16:30:00Z,30.2513,-88.0778,6.024,6.84,1111122 
DISL,ioos:station:DISL:DISL:1,2012-02-02T17:00:00Z,30.2513,-88.0778,6.074,6.98,1111122 
DISL,ioos:station:DISL:DISL:1,2012-02-02T17:30:00Z,30.2513,-88.0778,6.183,6.96,1111122 
DISL,ioos:station:DISL:DISL:1,2012-02-02T18:00:00Z,30.2513,-88.0778,6.135,6.84,1111122 
DISL,ioos:station:DISL:DISL:1,2012-02-02T18:30:00Z,30.2513,-88.0778,6.38,6.98,1111122 
DISL,ioos:station:DISL:DISL:1,2012-02-02T19:00:00Z,30.2513,-88.0778,6.383,7.42,1111122 
DISL,ioos:station:DISL:DISL:1,2012-02-02T19:30:00Z,30.2513,-88.0778,6.423,12.46,1111122 
DISL,ioos:station:DISL:DISL:1,2012-02-02T20:00:00Z,30.2513,-88.0778,6.562,13.72,1111122 
DISL,ioos:station:DISL:DISL:1,2012-02-02T20:30:00Z,30.2513,-88.0778,6.569,15.37,1111122 
DISL,ioos:station:DISL:DISL:1,2012-02-02T21:00:00Z,30.2513,-88.0778,6.619,16.44,1111122 
DISL,ioos:station:DISL:DISL:1,2012-02-02T21:30:00Z,30.2513,-88.0778,6.814,16.63,1111122 
DISL,ioos:station:DISL:DISL:1,2012-02-02T22:00:00Z,30.2513,-88.0778,6.835,18.07,1111122 
DISL,ioos:station:DISL:DISL:1,2012-02-02T22:30:00Z,30.2513,-88.0778,6.896,16.58,1111122 
DISL,ioos:station:DISL:DISL:1,2012-02-02T23:00:00Z,30.2513,-88.0778,7.01,15.25,1111122 
DISL,ioos:station:DISL:DISL:1,2012-02-02T23:30:00Z,30.2513,-88.0778,7.01,13.4,1111122 
DISL,ioos:station:DISL:DISL:1,2012-02-03T00:00:00Z,30.2513,-88.0778,7.01,12.67,1111122 
DISL,ioos:station:DISL:DISL:1,2012-02-03T00:30:00Z,30.2513,-88.0778,6.992,12.47,1111122 
DISL,ioos:station:DISL:DISL:1,2012-02-03T01:00:00Z,30.2513,-88.0778,6.985,11.36,1111122 
DISL,ioos:station:DISL:DISL:1,2012-02-03T01:30:00Z,30.2513,-88.0778,6.989,11.47,1111122 
DISL,ioos:station:DISL:DISL:1,2012-02-03T02:00:00Z,30.2513,-88.0778,6.931,12.06,1111122 
DISL,ioos:station:DISL:DISL:1,2012-02-03T02:30:00Z,30.2513,-88.0778,6.889,12.14,1111122 
DISL,ioos:station:DISL:DISL:1,2012-02-03T03:00:00Z,30.2513,-88.0778,6.818,12.61,1111122 
DISL,ioos:station:DISL:DISL:1,2012-02-03T03:30:00Z,30.2513,-88.0778,6.736,11.85,1111122 
DISL,ioos:station:DISL:DISL:1,2012-02-03T04:00:00Z,30.2513,-88.0778,6.716,4.41,1111122 
DISL,ioos:station:DISL:DISL:1,2012-02-03T04:30:00Z,30.2513,-88.0778,6.577,3.76,1111122 
DISL,ioos:station:DISL:DISL:1,2012-02-03T05:00:00Z,30.2513,-88.0778,6.524,3.75,1111122 
DISL,ioos:station:DISL:DISL:1,2012-02-03T05:30:00Z,30.2513,-88.0778,6.441,3.85,1111122 
DISL,ioos:station:DISL:DISL:1,2012-02-03T06:00:00Z,30.2513,-88.0778,6.375,3.97,1111122 
DISL,ioos:station:DISL:DISL:1,2012-02-03T06:30:00Z,30.2513,-88.0778,6.243,3.86,1111122 
DISL,ioos:station:DISL:DISL:1,2012-02-03T07:00:00Z,30.2513,-88.0778,6.225,3.88,1111122 
DISL,ioos:station:DISL:DISL:1,2012-02-03T07:30:00Z,30.2513,-88.0778,6.12,4.02,1111122 
DISL,ioos:station:DISL:DISL:1,2012-02-03T08:00:00Z,30.2513,-88.0778,6.004,4.16,1111122 
DISL,ioos:station:DISL:DISL:1,2012-02-03T08:30:00Z,30.2513,-88.0778,5.964,4.24,1111122 
DISL,ioos:station:DISL:DISL:1,2012-02-03T09:00:00Z,30.2513,-88.0778,5.886,4.2,1111122 
DISL,ioos:station:DISL:DISL:1,2012-02-03T09:30:00Z,30.2513,-88.0778,5.789,3.88,1111122 
DISL,ioos:station:DISL:DISL:1,2012-02-03T10:00:00Z,30.2513,-88.0778,5.761,3.73,1111122 
DISL,ioos:station:DISL:DISL:1,2012-02-03T10:30:00Z,30.2513,-88.0778,5.718,3.62,1111122 
DISL,ioos:station:DISL:DISL:1,2012-02-03T11:00:00Z,30.2513,-88.0778,5.709,3.43,1111122 
DISL,ioos:station:DISL:DISL:1,2012-02-03T11:30:00Z,30.2513,-88.0778,5.66,3.3,1111122 
DISL,ioos:station:DISL:DISL:1,2012-02-03T12:00:00Z,30.2513,-88.0778,5.687,3.23,1111122 
DISL,ioos:station:DISL:DISL:1,2012-02-03T12:30:00Z,30.2513,-88.0778,5.632,3.18,1111122 
DISL,ioos:station:DISL:DISL:1,2012-02-03T13:00:00Z,30.2513,-88.0778,5.691,3.14,1111122 
DISL,ioos:station:DISL:DISL:1,2012-02-03T13:30:00Z,30.2513,-88.0778,5.791,3.18,1111122 
DISL,ioos:station:DISL:DISL:1,2012-02-03T14:00:00Z,30.2513,-88.0778,5.761,3.23,1111122 
DISL,ioos:station:DISL:DISL:1,2012-02-03T14:30:00Z,30.2513,-88.0778,5.877,3.53,1111122 
DISL,ioos:station:DISL:DISL:1,2012-02-03T15:00:00Z,30.2513,-88.0778,5.815,4.87,1111122 
DISL,ioos:station:DISL:DISL:1,2012-02-03T15:30:00Z,30.2513,-88.0778,5.813,5.07,1111122 
DISL,ioos:station:DISL:DISL:1,2012-02-03T16:00:00Z,30.2513,-88.0778,5.997,4.91,1111122 
DISL,ioos:station:DISL:DISL:1,2012-02-03T16:30:00Z,30.2513,-88.0778,5.987,5.06,1111122 
DISL,ioos:station:DISL:DISL:1,2012-02-03T17:00:00Z,30.2513,-88.0778,6.104,5.15,1111122 
DISL,ioos:station:DISL:DISL:1,2012-02-03T17:30:00Z,30.2513,-88.0778,6.106,5.06,1111122 
DISL,ioos:station:DISL:DISL:1,2012-02-03T18:00:00Z,30.2513,-88.0778,6.263,6.44,1111122 
DISL,ioos:station:DISL:DISL:1,2012-02-03T18:30:00Z,30.2513,-88.0778,6.461,6.31,1111122 
DISL,ioos:station:DISL:DISL:1,2012-02-03T19:00:00Z,30.2513,-88.0778,6.577,8.01,1111122 
DISL,ioos:station:DISL:DISL:1,2012-02-03T19:30:00Z,30.2513,-88.0778,6.68,14.19,1111122 
DISL,ioos:station:DISL:DISL:1,2012-02-03T20:00:00Z,30.2513,-88.0778,6.7,16.0,1111122 
DISL,ioos:station:DISL:DISL:1,2012-02-03T20:30:00Z,30.2513,-88.0778,6.592,15.73,1111122 
DISL,ioos:station:DISL:DISL:1,2012-02-03T21:00:00Z,30.2513,-88.0778,6.741,17.04,1111122 
DISL,ioos:station:DISL:DISL:1,2012-02-03T21:30:00Z,30.2513,-88.0778,6.839,17.72,1111122 
DISL,ioos:station:DISL:DISL:1,2012-02-03T22:00:00Z,30.2513,-88.0778,6.998,19.24,1111122 
DISL,ioos:station:DISL:DISL:1,2012-02-03T22:30:00Z,30.2513,-88.0778,7.09,19.69,1111122 
DISL,ioos:station:DISL:DISL:1,2012-02-03T23:00:00Z,30.2513,-88.0778,6.928,19.42,1111122 
DISL,ioos:station:DISL:DISL:1,2012-02-03T23:30:00Z,30.2513,-88.0778,7.06,19.07,1111122 
DISL,ioos:station:DISL:DISL:1,2012-02-04T00:00:00Z,30.2513,-88.0778,7.18,18.84,1111122 
DISL,ioos:station:DISL:DISL:1,2012-02-04T00:30:00Z,30.2513,-88.0778,7.26,17.75,1111122 
DISL,ioos:station:DISL:DISL:1,2012-02-04T01:00:00Z,30.2513,-88.0778,7.24,5.75,1111122 
DISL,ioos:station:DISL:DISL:1,2012-02-04T01:30:00Z,30.2513,-88.0778,7.34,4.94,1111122 
DISL,ioos:station:DISL:DISL:1,2012-02-04T02:00:00Z,30.2513,-88.0778,7.32,4.48,1111122 
DISL,ioos:station:DISL:DISL:1,2012-02-04T02:30:00Z,30.2513,-88.0778,7.27,4.31,1111122 
DISL,ioos:station:DISL:DISL:1,2012-02-04T03:00:00Z,30.2513,-88.0778,7.21,3.96,1111122 
DISL,ioos:station:DISL:DISL:1,2012-02-04T03:30:00Z,30.2513,-88.0778,7.17,3.84,1111122 
DISL,ioos:station:DISL:DISL:1,2012-02-04T04:00:00Z,30.2513,-88.0778,7.02,3.82,1111122 
DISL,ioos:station:DISL:DISL:1,2012-02-04T04:30:00Z,30.2513,-88.0778,6.966,3.9,1111122 
DISL,ioos:station:DISL:DISL:1,2012-02-04T05:00:00Z,30.2513,-88.0778,6.903,5.39,1111122 
DISL,ioos:station:DISL:DISL:1,2012-02-04T05:30:00Z,30.2513,-88.0778,6.799,10.4,1111122 
DISL,ioos:station:DISL:DISL:1,2012-02-04T06:00:00Z,30.2513,-88.0778,6.777,8.12,1111122 
DISL,ioos:station:DISL:DISL:1,2012-02-04T06:30:00Z,30.2513,-88.0778,6.553,5.33,1111122 
DISL,ioos:station:DISL:DISL:1,2012-02-04T07:00:00Z,30.2513,-88.0778,6.65,6.15,1111122 
DISL,ioos:station:DISL:DISL:1,2012-02-04T07:30:00Z,30.2513,-88.0778,6.607,7.27,1111122 
DISL,ioos:station:DISL:DISL:1,2012-02-04T08:00:00Z,30.2513,-88.0778,6.362,10.01,1111122 
DISL,ioos:station:DISL:DISL:1,2012-02-04T08:30:00Z,30.2513,-88.0778,6.324,10.41,1111122 
DISL,ioos:station:DISL:DISL:1,2012-02-04T09:00:00Z,30.2513,-88.0778,6.281,9.77,1111122 
DISL,ioos:station:DISL:DISL:1,2012-02-04T09:30:00Z,30.2513,-88.0778,6.138,9.49,1111122 
DISL,ioos:station:DISL:DISL:1,2012-02-04T10:00:00Z,30.2513,-88.0778,6.058,9.32,1111122 
DISL,ioos:station:DISL:DISL:1,2012-02-04T10:30:00Z,30.2513,-88.0778,5.966,8.53,1111122 
DISL,ioos:station:DISL:DISL:1,2012-02-04T11:00:00Z,30.2513,-88.0778,5.976,7.65,1111122 
DISL,ioos:station:DISL:DISL:1,2012-02-04T11:30:00Z,30.2513,-88.0778,5.869,7.0,1111122 
DISL,ioos:station:DISL:DISL:1,2012-02-04T12:00:00Z,30.2513,-88.0778,5.853,6.35,1111122 
DISL,ioos:station:DISL:DISL:1,2012-02-04T12:30:00Z,30.2513,-88.0778,5.799,5.96,1111122 
DISL,ioos:station:DISL:DISL:1,2012-02-04T13:00:00Z,30.2513,-88.0778,5.758,5.42,1111122 
DISL,ioos:station:DISL:DISL:1,2012-02-04T13:30:00Z,30.2513,-88.0778,5.631,4.8,1111122 
DISL,ioos:station:DISL:DISL:1,2012-02-04T14:00:00Z,30.2513,-88.0778,5.698,4.51,1111122 
DISL,ioos:station:DISL:DISL:1,2012-02-04T14:30:00Z,30.2513,-88.0778,5.688,4.36,1111122 
DISL,ioos:station:DISL:DISL:1,2012-02-04T15:00:00Z,30.2513,-88.0778,5.674,4.39,1111122 
DISL,ioos:station:DISL:DISL:1,2012-02-04T15:30:00Z,30.2513,-88.0778,5.848,4.52,1111122 
DISL,ioos:station:DISL:DISL:1,2012-02-04T16:00:00Z,30.2513,-88.0778,5.8,5.07,1111122 
DISL,ioos:station:DISL:DISL:1,2012-02-04T16:30:00Z,30.2513,-88.0778,5.841,6.25,1111122 
DISL,ioos:station:DISL:DISL:1,2012-02-04T17:00:00Z,30.2513,-88.0778,5.961,6.8,1111122 
DISL,ioos:station:DISL:DISL:1,2012-02-04T17:30:00Z,30.2513,-88.0778,5.87,7.17,1111122 
DISL,ioos:station:DISL:DISL:1,2012-02-04T18:00:00Z,30.2513,-88.0778,5.946,7.24,1111122 
DISL,ioos:station:DISL:DISL:1,2012-02-04T18:30:00Z,30.2513,-88.0778,6.056,7.46,1111122 
DISL,ioos:station:DISL:DISL:1,2012-02-04T19:00:00Z,30.2513,-88.0778,6.175,7.59,1111122 
DISL,ioos:station:DISL:DISL:1,2012-02-04T19:30:00Z,30.2513,-88.0778,6.329,7.35,1111122 
DISL,ioos:station:DISL:DISL:1,2012-02-04T20:00:00Z,30.2513,-88.0778,6.328,7.73,1111122 
DISL,ioos:station:DISL:DISL:1,2012-02-04T20:30:00Z,30.2513,-88.0778,6.388,11.4,1111122 
DISL,ioos:station:DISL:DISL:1,2012-02-04T21:00:00Z,30.2513,-88.0778,6.598,16.21,1111122 
DISL,ioos:station:DISL:DISL:1,2012-02-04T21:30:00Z,30.2513,-88.0778,6.699,18.01,1111122 
DISL,ioos:station:DISL:DISL:1,2012-02-04T22:00:00Z,30.2513,-88.0778,6.705,20.97,1111122 
DISL,ioos:station:DISL:DISL:1,2012-02-04T22:30:00Z,30.2513,-88.0778,6.801,23.36,1111122 
DISL,ioos:station:DISL:DISL:1,2012-02-04T23:00:00Z,30.2513,-88.0778,7.01,23.46,1111122 
DISL,ioos:station:DISL:DISL:1,2012-02-04T23:30:00Z,30.2513,-88.0778,7.07,24.39,1111122 
DISL,ioos:station:DISL:DISL:1,2012-02-05T00:00:00Z,30.2513,-88.0778,7.15,25.16,1111122 
DISL,ioos:station:DISL:DISL:1,2012-02-05T00:30:00Z,30.2513,-88.0778,7.14,22.5,1111122 
DISL,ioos:station:DISL:DISL:1,2012-02-05T01:00:00Z,30.2513,-88.0778,7.21,24.92,1111122 
DISL,ioos:station:DISL:DISL:1,2012-02-05T01:30:00Z,30.2513,-88.0778,7.29,19.62,1111122 
DISL,ioos:station:DISL:DISL:1,2012-02-05T02:00:00Z,30.2513,-88.0778,7.26,16.81,1111122 
DISL,ioos:station:DISL:DISL:1,2012-02-05T02:30:00Z,30.2513,-88.0778,7.3,15.98,1111122 
DISL,ioos:station:DISL:DISL:1,2012-02-05T03:00:00Z,30.2513,-88.0778,7.21,13.93,1111122 
DISL,ioos:station:DISL:DISL:1,2012-02-05T03:30:00Z,30.2513,-88.0778,7.22,15.46,1111122 
DISL,ioos:station:DISL:DISL:1,2012-02-05T04:00:00Z,30.2513,-88.0778,7.18,13.48,1111122 
DISL,ioos:station:DISL:DISL:1,2012-02-05T04:30:00Z,30.2513,-88.0778,6.99,14.14,1111122 
DISL,ioos:station:DISL:DISL:1,2012-02-05T05:00:00Z,30.2513,-88.0778,6.969,15.24,1111122 
DISL,ioos:station:DISL:DISL:1,2012-02-05T05:30:00Z,30.2513,-88.0778,6.86,15.1,1111122 
DISL,ioos:station:DISL:DISL:1,2012-02-05T06:00:00Z,30.2513,-88.0778,6.782,15.52,1111122 
DISL,ioos:station:DISL:DISL:1,2012-02-05T06:30:00Z,30.2513,-88.0778,6.61,14.46,1111122 
DISL,ioos:station:DISL:DISL:1,2012-02-05T07:00:00Z,30.2513,-88.0778,6.587,9.4,1111122 
DISL,ioos:station:DISL:DISL:1,2012-02-05T07:30:00Z,30.2513,-88.0778,6.568,4.93,1111122 
DISL,ioos:station:DISL:DISL:1,2012-02-05T08:00:00Z,30.2513,-88.0778,6.48,5.33,1111122 
DISL,ioos:station:DISL:DISL:1,2012-02-05T08:30:00Z,30.2513,-88.0778,6.385,5.22,1111122 
DISL,ioos:station:DISL:DISL:1,2012-02-05T09:00:00Z,30.2513,-88.0778,6.329,4.63,1111122 
DISL,ioos:station:DISL:DISL:1,2012-02-05T09:30:00Z,30.2513,-88.0778,6.195,4.39,1111122 
DISL,ioos:station:DISL:DISL:1,2012-02-05T10:00:00Z,30.2513,-88.0778,6.126,4.24,1111122 
DISL,ioos:station:DISL:DISL:1,2012-02-05T10:30:00Z,30.2513,-88.0778,6.09,4.08,1111122 
DISL,ioos:station:DISL:DISL:1,2012-02-05T11:00:00Z,30.2513,-88.0778,5.98,4.01,1111122 
DISL,ioos:station:DISL:DISL:1,2012-02-05T11:30:00Z,30.2513,-88.0778,6.023,3.65,1111122 
DISL,ioos:station:DISL:DISL:1,2012-02-05T12:00:00Z,30.2513,-88.0778,5.952,3.47,1111122 
DISL,ioos:station:DISL:DISL:1,2012-02-05T12:30:00Z,30.2513,-88.0778,5.915,3.53,1111122 
DISL,ioos:station:DISL:DISL:1,2012-02-05T13:00:00Z,30.2513,-88.0778,5.896,3.43,1111122 
DISL,ioos:station:DISL:DISL:1,2012-02-05T13:30:00Z,30.2513,-88.0778,5.988,3.34,1111122 
DISL,ioos:station:DISL:DISL:1,2012-02-05T14:00:00Z,30.2513,-88.0778,5.52,3.32,1111122 
DISL,ioos:station:DISL:DISL:1,2012-02-05T14:30:00Z,30.2513,-88.0778,5.812,3.26,1111122 
DISL,ioos:station:DISL:DISL:1,2012-02-05T15:00:00Z,30.2513,-88.0778,5.694,3.19,1111122 
DISL,ioos:station:DISL:DISL:1,2012-02-05T15:30:00Z,30.2513,-88.0778,5.773,3.01,1111122 
DISL,ioos:station:DISL:DISL:1,2012-02-05T16:00:00Z,30.2513,-88.0778,6.021,2.91,1111122 
DISL,ioos:station:DISL:DISL:1,2012-02-05T16:30:00Z,30.2513,-88.0778,6.013,2.91,1111122 
DISL,ioos:station:DISL:DISL:1,2012-02-05T17:00:00Z,30.2513,-88.0778,5.873,2.93,1111122 
DISL,ioos:station:DISL:DISL:1,2012-02-05T17:30:00Z,30.2513,-88.0778,5.969,2.93,1111122 
DISL,ioos:station:DISL:DISL:1,2012-02-05T18:00:00Z,30.2513,-88.0778,5.939,4.17,1111122 
DISL,ioos:station:DISL:DISL:1,2012-02-05T18:30:00Z,30.2513,-88.0778,5.93,7.7,1111122 
DISL,ioos:station:DISL:DISL:1,2012-02-05T19:00:00Z,30.2513,-88.0778,6.199,7.46,1111122 
DISL,ioos:station:DISL:DISL:1,2012-02-05T19:30:00Z,30.2513,-88.0778,6.139,6.18,1111122 
DISL,ioos:station:DISL:DISL:1,2012-02-05T20:00:00Z,30.2513,-88.0778,6.238,6.22,1111122 
DISL,ioos:station:DISL:DISL:1,2012-02-05T20:30:00Z,30.2513,-88.0778,6.219,9.93,1111122 
DISL,ioos:station:DISL:DISL:1,2012-02-05T21:00:00Z,30.2513,-88.0778,6.492,15.21,1111122 
DISL,ioos:station:DISL:DISL:1,2012-02-05T21:30:00Z,30.2513,-88.0778,6.419,18.05,1111122 
DISL,ioos:station:DISL:DISL:1,2012-02-05T22:00:00Z,30.2513,-88.0778,6.663,20.16,1111122 
DISL,ioos:station:DISL:DISL:1,2012-02-05T22:30:00Z,30.2513,-88.0778,6.811,21.88,1111122 
DISL,ioos:station:DISL:DISL:1,2012-02-05T23:00:00Z,30.2513,-88.0778,6.892,23.99,1111122 
DISL,ioos:station:DISL:DISL:1,2012-02-05T23:30:00Z,30.2513,-88.0778,6.849,26.18,1111122 
DISL,ioos:station:DISL:DISL:1,2012-02-06T00:00:00Z,30.2513,-88.0778,6.787,27.12,1111122 
DISL,ioos:station:DISL:DISL:1,2012-02-06T00:30:00Z,30.2513,-88.0778,7.01,27.65,1111122 
DISL,ioos:station:DISL:DISL:1,2012-02-06T01:00:00Z,30.2513,-88.0778,7.14,26.16,1111122 
DISL,ioos:station:DISL:DISL:1,2012-02-06T01:30:00Z,30.2513,-88.0778,6.993,27.05,1111122 
DISL,ioos:station:DISL:DISL:1,2012-02-06T02:00:00Z,30.2513,-88.0778,6.974,13.11,1111122 
DISL,ioos:station:DISL:DISL:1,2012-02-06T02:30:00Z,30.2513,-88.0778,7.16,25.43,1111122 
DISL,ioos:station:DISL:DISL:1,2012-02-06T03:00:00Z,30.2513,-88.0778,7.2,11.03,1111122 
DISL,ioos:station:DISL:DISL:1,2012-02-06T03:30:00Z,30.2513,-88.0778,7.26,8.49,1111122 
DISL,ioos:station:DISL:DISL:1,2012-02-06T04:00:00Z,30.2513,-88.0778,7.2,8.73,1111122 
DISL,ioos:station:DISL:DISL:1,2012-02-06T04:30:00Z,30.2513,-88.0778,7.21,5.92,1111122 
DISL,ioos:station:DISL:DISL:1,2012-02-06T05:00:00Z,30.2513,-88.0778,6.972,8.42,1111122 
DISL,ioos:station:DISL:DISL:1,2012-02-06T05:30:00Z,30.2513,-88.0778,7.18,3.93,1111122 
DISL,ioos:station:DISL:DISL:1,2012-02-06T06:00:00Z,30.2513,-88.0778,6.897,3.71,1111122 
DISL,ioos:station:DISL:DISL:1,2012-02-06T06:30:00Z,30.2513,-88.0778,6.6,3.69,1111122 
DISL,ioos:station:DISL:DISL:1,2012-02-06T07:00:00Z,30.2513,-88.0778,6.651,3.52,1111122 
DISL,ioos:station:DISL:DISL:1,2012-02-06T07:30:00Z,30.2513,-88.0778,6.371,3.23,1111122 
DISL,ioos:station:DISL:DISL:1,2012-02-06T08:00:00Z,30.2513,-88.0778,6.312,3.28,1111122 
DISL,ioos:station:DISL:DISL:1,2012-02-06T08:30:00Z,30.2513,-88.0778,6.615,3.11,1111122 
DISL,ioos:station:DISL:DISL:1,2012-02-06T09:00:00Z,30.2513,-88.0778,6.328,3.14,1111122 
DISL,ioos:station:DISL:DISL:1,2012-02-06T09:30:00Z,30.2513,-88.0778,6.442,3.22,1111122 
DISL,ioos:station:DISL:DISL:1,2012-02-06T10:00:00Z,30.2513,-88.0778,5.869,3.31,1111122 
DISL,ioos:station:DISL:DISL:1,2012-02-06T10:30:00Z,30.2513,-88.0778,6.059,4.19,1111122 
DISL,ioos:station:DISL:DISL:1,2012-02-06T11:00:00Z,30.2513,-88.0778,5.668,4.19,1111122 
DISL,ioos:station:DISL:DISL:1,2012-02-06T11:30:00Z,30.2513,-88.0778,5.544,4.86,1111122 
DISL,ioos:station:DISL:DISL:1,2012-02-06T12:00:00Z,30.2513,-88.0778,5.629,4.1,1111122 
DISL,ioos:station:DISL:DISL:1,2012-02-06T12:30:00Z,30.2513,-88.0778,5.558,4.67,1111122 
DISL,ioos:station:DISL:DISL:1,2012-02-06T13:00:00Z,30.2513,-88.0778,5.492,4.5,1111122 
DISL,ioos:station:DISL:DISL:1,2012-02-06T13:30:00Z,30.2513,-88.0778,5.439,4.54,1111122 
DISL,ioos:station:DISL:DISL:1,2012-02-06T14:00:00Z,30.2513,-88.0778,5.446,4.53,1111122 
DISL,ioos:station:DISL:DISL:1,2012-02-06T14:30:00Z,30.2513,-88.0778,5.636,4.55,1111122 
DISL,ioos:station:DISL:DISL:1,2012-02-06T15:00:00Z,30.2513,-88.0778,5.41,5.96,1111122 